[[{"header":{"parameterUnit":"m.s-1","parameterCategory":1,"la1":30.2992,"la2":30.254,"lo1":-89.0895,"lo2":-89.0443,"dy":0.0025,"dx":0.0025,"nx":19,"ny":19,"refTime":"2026-03-24T21:00:00:Z","depth":0,"parameterNumber":2,"parameterNumberName":"U-component_of_WINDS"},"data":[0,0,0,-4.154,-4.1546,-4.1875,-4.1876,-4.2274,-4.2277,0,0,0,0,0,0,0,0,0,0,0,-4.1426,-4.1428,-4.1539,-4.1547,-4.1875,-4.1876,-4.2273,-4.2277,0,0,0,0,0,0,0,0,0,0,0,-4.1425,-4.1428,-4.143,-4.1548,-4.1874,-4.1877,-4.2273,-4.2034,0,0,0,0,0,0,0,0,0,0,-4.1719,-4.1597,-4.1427,-4.143,-4.155,-4.1874,-4.1877,-4.2022,-4.2048,-4.2115,0,-4.2167,0,-4.2228,-4.2302,-4.2304,0,0,0,-4.156,-4.1575,-4.1678,-4.1431,-4.1553,-4.1874,-4.173,-4.2037,-4.2067,-4.2149,-4.2173,-4.2189,-4.2235,-4.2305,-4.2307,-4.2642,-4.2643,0,0,-4.1541,-4.1477,-4.1658,-4.1697,-4.1642,-4.172,-4.174,-4.2055,-4.2078,-4.2175,-4.2199,-4.2242,-4.2307,-4.231,-4.2641,-4.2642,0,0,0,-4.1481,-4.1463,-4.156,-4.168,-4.174,-4.1729,-4.1753,-4.2064,-4.2101,-4.2203,-4.2246,-4.2309,-4.2314,-4.264,-4.2642,-4.2623,0,0,0,-4.1471,-4.1428,-4.1551,-4.1515,-4.1734,-4.1906,-4.1754,-4.2079,-4.2117,-4.2244,-4.231,-4.2318,-4.2639,-4.2641,-4.2622,-4.2625,0,0,0,-4.141,-4.1422,-4.1463,-4.1511,-4.1649,-4.1902,-4.1957,-4.2089,-4.2142,-4.2304,-4.2319,-4.2639,-4.2641,-4.262,-4.2623,-4.2692,0,0,0,-4.1328,-4.1444,-4.1462,-4.1609,-4.1646,-4.1889,-4.1956,-4.2141,-4.2277,-4.2311,-4.2639,-4.2642,-4.262,-4.2621,-4.269,-4.2736,-4.275,0,0,-4.1438,-4.1455,-4.1547,-4.1573,-4.1794,-4.1844,-4.2066,-4.2253,-4.233,-4.2534,-4.2544,-4.2622,-4.2622,-4.2692,-4.2857,-4.2867,0,0,0,-4.156,-4.1624,-4.1698,-4.1823,-4.1969,-4.2094,-4.2255,-4.2326,-4.2502,-4.2421,-4.2671,-4.2673,-4.2716,-4.2741,-4.275,-4.2791,-4.2651,-4.2651,-4.2651,-4.1619,-4.171,-4.1869,-4.1999,-4.2121,-4.2287,-4.2395,-4.2518,-4.2575,-4.2633,-4.2692,-4.2781,-4.2808,-4.2815,-4.2857,-4.2728,-4.2728,-4.2728,-4.2728,-4.1787,-4.1891,-4.1966,-4.2144,-4.2241,-4.2394,-4.2561,-4.2596,-4.2754,-4.2744,-4.2787,-4.2763,-4.2824,-4.2865,-4.2727,-4.2727,-4.2727,-4.2728,-4.2728,-4.1832,-4.1898,-4.1982,-4.2174,-4.2314,-4.2445,-4.2592,-4.2677,-4.2758,-4.2801,-4.2872,-4.2873,-4.2882,-4.283,-4.283,-4.2831,-4.2831,-4.2831,-4.2831,-4.1844,-4.194,-4.2052,-4.2218,-4.2311,-4.2444,-4.2615,-4.271,-4.2837,-4.2887,-4.2888,-4.2938,-4.2814,-4.2778,-4.2836,-4.2836,-4.2835,-4.2834,-4.2834,-4.1972,-4.1957,-4.213,-4.2223,-4.2427,-4.2559,-4.2668,-4.2854,-4.2946,-4.3016,-4.306,-4.2955,-4.2978,-4.2972,-4.2943,-4.3041,-4.3041,-4.3041,-4.3041,-4.2007,-4.2029,-4.2225,-4.2368,-4.2519,-4.2635,-4.283,-4.2966,-4.3105,-4.3168,-4.3168,-4.3138,-4.3128,-4.3158,-4.3147,-4.3121,-4.3262,-4.3262,-4.3263,-4.209,-4.213,-4.2277,-4.241,-4.2577,-4.2719,-4.2905,-4.307,-4.3225,-4.3273,-4.3219,-4.3209,-4.3163,-4.3144,-4.3184,-4.3166,-4.312,0,0]},{"header":{"parameterUnit":"m.s-1","parameterCategory":1,"la1":30.2992,"la2":30.254,"lo1":-89.0895,"lo2":-89.0443,"dy":0.0025,"dx":0.0025,"nx":19,"ny":19,"refTime":"2026-03-24T21:00:00:Z","depth":0,"parameterNumber":3,"parameterNumberName":"V-component_of_WINDS"},"data":[0,0,0,2.5512,2.5517,2.5808,2.581,2.6142,2.6144,0,0,0,0,0,0,0,0,0,0,0,2.5401,2.5402,2.5511,2.5518,2.5808,2.581,2.6141,2.6144,0,0,0,0,0,0,0,0,0,0,0,2.54,2.5402,2.5404,2.5519,2.5808,2.581,2.6141,2.5936,0,0,0,0,0,0,0,0,0,0,2.566,2.5533,2.5401,2.5404,2.5521,2.5807,2.581,2.5926,2.5948,2.5993,0,2.6025,0,2.609,2.6164,2.6165,0,0,0,2.5537,2.5514,2.5616,2.5404,2.5523,2.5807,2.5682,2.5939,2.5964,2.6022,2.603,2.6043,2.6095,2.6166,2.6167,2.6361,2.6361,0,0,2.5521,2.544,2.5598,2.563,2.5582,2.5673,2.5691,2.5955,2.5959,2.6031,2.6052,2.61,2.6168,2.617,2.6361,2.6361,0,0,0,2.5462,2.5427,2.5523,2.5616,2.5671,2.5681,2.5702,2.5947,2.5985,2.6056,2.6104,2.6169,2.6173,2.6361,2.6361,2.6284,0,0,0,2.5453,2.5393,2.5515,2.5468,2.5665,2.5812,2.5687,2.5967,2.5999,2.6103,2.6169,2.6176,2.6361,2.6361,2.6286,2.626,0,0,0,2.539,2.5387,2.542,2.5463,2.5585,2.581,2.5864,2.5976,2.6028,2.6165,2.6177,2.6361,2.6361,2.6288,2.6264,2.6288,0,0,0,2.53,2.5346,2.5417,2.5488,2.5582,2.576,2.5863,2.5999,2.6108,2.6171,2.6361,2.6361,2.6288,2.6266,2.629,2.6294,2.6288,0,0,2.5312,2.5344,2.5393,2.5465,2.5609,2.5722,2.5856,2.6032,2.6119,2.6276,2.6282,2.6285,2.6264,2.6288,2.6283,2.6278,0,0,0,2.5369,2.5403,2.5459,2.5558,2.5694,2.581,2.5974,2.6041,2.6178,2.6183,2.6303,2.6293,2.6311,2.6317,2.6312,2.6333,2.636,2.636,2.636,2.5269,2.538,2.5468,2.5613,2.5709,2.588,2.5969,2.6087,2.6169,2.6196,2.6243,2.6226,2.623,2.6227,2.6247,2.6254,2.6254,2.6254,2.6254,2.5298,2.5363,2.5474,2.5599,2.5716,2.5823,2.5991,2.6046,2.6163,2.6199,2.6221,2.625,2.6218,2.6242,2.6249,2.625,2.6251,2.6251,2.6251,2.5244,2.5295,2.5375,2.5533,2.5643,2.579,2.5898,2.6002,2.61,2.6121,2.6182,2.6184,2.6199,2.6143,2.6143,2.6143,2.6143,2.6143,2.6143,2.5156,2.525,2.5328,2.5478,2.5558,2.5675,2.585,2.5931,2.6048,2.6115,2.6116,2.6196,2.6194,2.6191,2.6142,2.6142,2.6142,2.6143,2.6143,2.5143,2.5163,2.5283,2.5362,2.555,2.5653,2.5785,2.5942,2.6025,2.6075,2.6153,2.6135,2.6174,2.6179,2.6177,2.6128,2.6128,2.6128,2.6128,2.5097,2.5128,2.5276,2.5397,2.5527,2.5659,2.5794,2.5931,2.6077,2.6135,2.6158,2.6165,2.6165,2.6205,2.6209,2.6209,2.6169,2.6169,2.6169,2.5096,2.5145,2.5238,2.538,2.5536,2.5667,2.5798,2.5933,2.6103,2.6173,2.6184,2.6182,2.6195,2.6193,2.626,2.6264,2.6266,0,0]}]]